Theta_e
296 296 297 297 297 296 296 296 297 298 298 297 297 297 298 299 299 302 303 304 305 311 315 317 315 313 315 319 320 320 321 319 317 316 316 313 309 315 316 317 315 314 313 308 311 309 313 313 313 313 311 312 311 312
297 297 297 297 297 297 297 297 297 297 297 297 298 298 297 299 300 301 303 304 306 307 314 311 312 314 317 317 319 318 320 320 321 320 314 312 314 307 313 318 317 316 313 313 314 313 313 312 313 311 312 313 313 313
297 296 296 296 297 297 298 298 299 299 298 298 299 298 299 299 301 303 303 303 305 308 310 314 318 321 321 320 321 320 317 321 323 316 316 314 314 309 312 312 316 316 317 317 315 316 316 315 313 312 309 306 305 306
297 296 296 297 298 297 298 299 299 298 300 301 300 300 302 302 302 302 303 305 305 311 312 317 320 319 321 320 320 320 318 320 321 317 311 309 313 313 308 314 314 314 314 314 316 315 314 311 309 305 304 302 302 301
295 294 295 296 297 297 297 297 298 299 300 300 300 301 301 301 301 301 301 306 309 312 312 316 317 320 322 321 319 319 319 320 316 311 307 313 314 314 309 310 311 313 313 312 312 314 311 309 306 305 303 302 300 299
296 297 297 297 297 297 297 298 298 298 299 300 301 301 301 301 301 302 305 304 307 310 312 314 314 318 320 322 321 321 320 319 317 315 312 314 315 310 307 306 314 313 313 313 313 309 306 303 302 302 301 299 298 297
297 297 298 297 297 298 298 298 299 301 300 300 301 301 301 301 302 306 307 308 305 308 312 312 314 317 318 318 316 318 316 315 318 315 309 312 314 310 304 311 314 311 309 308 305 305 304 304 301 299 298 296 296 295
298 298 298 298 298 299 299 299 299 300 300 300 300 301 302 303 303 307 309 311 310 310 313 311 315 315 316 314 317 315 315 311 312 311 307 307 310 300 310 312 310 308 307 307 305 304 302 299 297 296 296 296 295 294
297 297 297 297 297 297 297 298 298 299 299 301 301 302 304 306 308 308 307 310 309 311 311 306 314 317 312 310 307 309 307 311 311 308 307 309 303 310 311 310 308 307 306 302 301 300 299 298 297 296 295 294 293 292
298 298 298 299 298 298 299 298 299 300 301 302 303 306 308 309 308 307 310 310 309 308 306 308 309 313 312 305 307 304 305 308 313 309 309 307 307 304 304 305 304 304 302 300 300 299 298 297 297 297 295 294 293 291
303 303 302 301 301 302 302 301 302 303 303 305 310 308 310 308 309 309 306 306 308 306 303 307 308 312 308 308 308 302 308 305 312 311 310 310 309 306 303 303 302 302 302 299 299 298 298 298 297 295 294 292 290 288
305 305 305 304 303 302 302 302 303 305 310 311 311 311 310 308 304 306 305 304 307 309 304 308 308 309 306 308 308 306 307 304 312 306 310 311 303 302 305 305 304 302 301 299 299 299 298 297 295 293 291 289 287 287
306 307 307 306 305 305 306 306 308 311 311 310 306 302 307 302 306 303 305 308 307 303 303 303 306 304 304 305 305 307 305 308 299 310 305 303 303 302 303 302 301 300 300 299 298 297 295 294 292 290 288 286 286 285
308 307 307 307 307 308 309 310 309 308 308 302 302 304 304 304 302 302 304 303 299 299 301 301 303 306 300 306 303 310 306 306 307 305 304 302 302 301 301 300 298 296 294 294 294 292 291 290 290 289 286 285 284 283
307 306 308 308 309 310 311 310 308 304 298 299 300 302 301 299 298 298 297 298 297 298 299 302 302 303 304 306 303 305 308 309 305 302 303 300 299 299 298 296 295 293 292 292 291 290 289 288 287 286 285 284 283 282
305 307 301 302 304 305 305 305 301 299 296 295 297 301 300 301 300 298 298 299 297 296 297 297 303 306 306 305 307 308 304 304 305 301 299 299 298 296 295 294 294 293 292 291 290 289 288 287 286 284 283 282 282 282
304 298 301 300 301 304 306 302 297 295 297 296 297 296 297 298 298 297 296 296 295 299 304 301 305 306 302 306 305 303 302 301 299 297 297 297 295 295 295 293 292 292 291 291 290 289 287 285 284 283 283 281 281 281
297 298 299 300 302 301 299 298 295 296 298 297 296 296 296 295 296 296 295 296 297 298 300 301 301 299 298 301 301 299 297 296 295 296 296 295 295 294 295 293 292 292 291 290 289 288 285 284 284 283 283 282 281 280
297 297 298 298 300 298 294 296 296 297 296 296 295 294 294 295 294 293 293 293 294 294 295 295 294 294 294 293 293 295 295 295 296 294 294 294 294 293 292 292 291 291 289 288 287 285 283 282 281 281 281 280 279 279
295 296 297 297 298 294 295 293 296 295 297 296 295 296 295 295 293 291 291 292 293 293 293 292 290 289 289 288 289 293 293 293 294 294 293 291 291 291 291 290 288 287 285 283 281 280 280 279 279 279 279 278 277 277
293 293 294 296 296 295 292 292 296 296 295 296 295 295 296 293 290 289 290 290 290 291 290 289 288 287 286 286 286 287 287 291 293 293 292 291 289 288 287 286 285 284 283 280 279 278 277 277 276 277 276 275 276 276
292 293 293 294 290 290 291 292 293 292 294 295 293 293 292 292 291 289 288 287 287 286 288 287 285 284 283 284 284 283 285 284 283 283 282 283 283 283 281 281 280 279 279 278 277 276 275 274 275 275 274 274 274 274
291 293 293 289 286 286 287 290 288 291 289 290 291 291 291 289 293 288 287 286 285 283 284 284 282 281 281 281 280 281 281 282 282 281 279 278 278 277 277 277 278 277 277 276 276 275 274 274 274 274 273 272 272 272
292 288 289 288 287 289 282 289 290 292 287 288 287 290 291 290 288 284 285 283 281 280 281 281 281 281 279 278 278 278 279 279 278 278 278 277 276 275 275 274 274 274 274 273 273 272 272 272 272 271 270 270 270 270
286 285 282 282 281 283 280 284 285 288 284 284 284 284 286 285 284 283 283 281 278 277 277 279 278 278 278 276 276 276 276 276 275 275 274 276 275 274 273 271 271 270 271 271 270 270 269 269 269 269 269 269 269 269
289 287 287 290 289 285 284 285 284 287 282 281 290 288 281 278 277 280 282 278 275 276 275 276 277 276 276 275 274 274 274 275 274 273 272 273 274 274 273 272 270 269 269 268 268 267 267 267 267 267 267 267 267 267
289 287 289 289 289 286 284 285 284 281 280 286 281 280 284 276 277 281 280 279 278 276 275 276 275 275 274 273 273 274 273 273 272 271 271 270 270 270 270 269 268 268 268 268 267 267 267 267 266 266 266 266 266 266
288 287 286 283 281 283 279 278 278 281 279 284 282 277 274 275 277 278 278 277 276 275 274 274 273 272 270 270 270 273 273 273 272 271 270 269 269 268 268 268 268 268 268 267 267 267 267 266 266 266 265 265 266 266
289 287 282 284 281 281 284 281 281 283 284 284 276 276 275 275 273 275 274 275 275 274 273 272 272 271 270 270 270 269 269 270 271 262 259 259 265 266 267 267 267 267 267 266 266 266 266 266 266 265 265 265 265 265
284 281 280 277 278 282 281 279 275 276 279 276 275 274 274 272 271 273 273 273 272 271 270 270 270 270 269 269 268 268 267 267 267 266 261 259 265 265 265 265 265 265 265 265 265 265 265 265 265 265 264 264 265 264
282 278 277 276 278 283 283 278 280 278 272 268 270 267 268 269 271 271 271 272 271 270 270 269 269 268 268 268 267 267 267 266 266 266 265 265 265 264 264 263 263 263 263 263 263 263 263 263 263 263 264 264 264 263
273 275 276 279 278 281 279 282 283 278 272 271 269 264 266 265 266 269 270 270 270 269 269 269 268 269 268 268 267 267 266 266 266 265 264 264 264 263 263 263 263 262 262 262 262 261 261 261 261 261 261 262 263 262
273 270 269 274 277 278 273 275 278 275 273 271 270 268 267 267 268 270 269 269 269 268 267 268 268 268 268 267 267 266 265 265 264 263 263 263 263 263 262 262 262 262 262 262 262 261 260 260 260 260 259 260 260 260
Wind_Speed
41 40 39 38 38 38 38 39 40 39 39 41 42 42 42 44 39 33 26 22 12 3 6 6 6 9 12 13 8 4 4 2 2 4 4 3 3 5 4 6 7 7 6 3 3 3 6 6 4 7 6 4 7 6
35 35 34 34 33 33 31 31 35 36 38 39 41 42 42 37 39 39 11 20 23 3 5 19 23 23 17 12 6 1 3 5 4 4 1 3 2 2 4 3 3 1 7 6 8 5 3 3 5 5 7 8 4 8
30 30 28 27 27 28 27 25 27 33 38 39 39 40 39 39 42 39 12 16 13 5 7 3 6 7 13 32 29 5 2 6 6 4 3 3 4 4 4 4 4 2 4 4 5 5 5 7 8 7 7 10 7 7
26 25 23 24 25 24 23 24 23 23 31 32 42 41 41 40 33 30 14 12 16 3 2 5 6 8 7 25 34 19 12 4 6 5 2 2 4 3 4 4 5 5 7 6 4 1 9 8 6 11 13 12 14 12
19 18 21 22 23 23 23 23 23 25 29 31 34 36 34 34 31 25 21 20 19 3 2 5 12 8 3 15 14 23 17 7 4 4 1 2 3 4 1 3 1 4 7 5 5 11 5 4 4 8 13 11 11 15
20 21 21 20 19 19 18 20 21 23 26 27 29 27 27 25 23 17 4 19 29 3 2 3 5 5 9 9 7 6 5 4 3 4 1 3 1 3 3 3 3 0 2 6 6 7 13 13 9 8 14 12 13 14
19 20 21 21 19 18 18 19 21 23 25 24 23 22 21 24 33 8 6 3 33 10 1 3 6 1 4 1 2 3 4 2 3 3 2 2 2 3 3 4 6 4 10 14 19 18 10 1 7 11 16 18 22 21
24 23 22 20 21 21 19 19 18 19 21 18 18 19 24 27 26 16 14 7 14 12 3 1 4 2 4 2 1 1 3 3 4 2 2 3 3 2 1 3 10 9 13 10 6 8 13 16 15 14 19 20 15 13
28 25 23 24 21 20 20 22 21 21 20 22 24 24 19 14 5 12 20 10 4 8 3 2 2 2 3 1 2 3 3 3 2 2 2 3 1 2 2 11 12 11 6 13 14 17 16 16 15 13 13 12 14 10
29 27 26 24 24 25 25 26 26 29 29 29 20 7 1 6 5 16 4 2 2 3 1 2 1 1 1 2 3 3 2 2 3 2 1 3 1 2 3 5 8 12 17 17 17 9 13 13 14 13 12 9 11 11
25 27 27 30 29 29 31 32 33 32 33 15 5 2 14 26 4 1 2 2 1 4 3 1 2 3 5 4 2 2 1 1 3 2 4 2 1 3 2 7 8 11 10 5 9 12 12 16 15 14 12 15 17 16
30 31 30 31 32 33 34 33 36 23 8 8 16 8 6 3 2 4 1 3 4 1 2 2 3 3 3 3 3 2 3 3 2 2 3 3 2 4 7 7 8 9 12 12 17 14 18 21 20 19 18 17 16 18
37 32 31 32 33 34 36 38 21 27 26 11 5 4 3 3 7 4 2 1 2 2 2 1 3 2 3 4 3 2 3 3 1 2 4 2 4 5 6 8 9 12 17 18 16 21 23 21 21 25 20 19 21 19
43 40 33 28 34 38 31 14 8 8 9 4 4 5 4 4 4 2 2 3 2 2 2 3 2 3 1 3 1 3 1 1 2 2 4 2 6 5 7 10 15 14 14 15 15 20 21 22 20 20 21 23 23 18
34 39 36 28 20 19 15 7 4 10 7 5 5 5 4 1 1 1 1 2 1 1 2 2 2 2 2 4 1 2 2 3 3 3 1 3 5 9 10 12 13 13 12 13 18 19 19 20 20 17 19 20 22 21
26 29 27 18 12 17 19 18 16 7 4 4 6 3 2 2 4 4 4 3 4 2 1 1 3 3 3 3 2 1 4 3 0 1 1 6 9 9 12 11 12 16 17 17 18 19 18 17 18 18 20 18 17 17
31 10 14 17 24 18 13 10 8 6 4 4 3 2 1 3 2 0 2 2 3 2 2 1 4 2 2 3 3 3 2 2 1 2 3 7 10 11 12 12 15 18 17 18 18 17 17 19 23 19 14 14 13 14
18 18 9 6 15 26 15 12 5 5 6 3 2 4 4 4 3 5 4 6 3 2 2 3 3 6 4 4 3 3 2 2 3 3 5 8 9 13 14 13 16 18 18 17 18 18 20 18 14 11 15 16 17 15
24 19 14 13 10 8 4 7 6 4 5 2 3 3 2 4 8 7 8 8 7 6 3 3 5 4 3 3 4 5 3 2 3 4 5 11 15 14 16 18 19 19 17 17 17 14 15 16 15 15 15 14 13 11
21 24 26 21 10 5 5 4 6 4 3 2 2 8 4 5 6 9 10 8 8 4 6 5 4 3 3 5 5 3 3 3 5 6 5 6 13 16 14 15 13 17 19 20 19 20 18 16 13 12 12 10 9 7
13 20 18 14 9 14 4 3 4 3 2 3 2 2 3 5 9 7 7 6 8 4 4 4 4 5 13 14 18 14 14 9 5 4 4 6 12 16 16 15 16 16 15 14 15 16 16 13 10 10 9 9 6 5
11 12 7 14 7 6 5 11 3 1 3 0 2 2 3 2 3 4 3 8 4 5 4 4 6 6 8 13 17 23 19 21 23 22 22 18 7 10 12 14 18 16 17 14 13 13 13 10 8 8 7 6 5 4
7 9 8 11 7 6 2 7 5 4 4 3 3 4 3 3 3 2 4 4 4 7 11 8 14 16 15 17 23 26 25 22 18 18 19 19 20 20 20 20 17 16 15 14 14 13 12 9 7 6 5 5 4 3
11 7 6 5 6 3 3 5 3 3 4 4 3 3 3 2 2 4 4 3 4 12 11 15 12 5 12 19 12 17 18 16 18 20 17 15 15 16 18 19 21 20 16 14 13 12 10 9 7 6 7 6 6 5
7 8 6 7 4 6 5 5 5 4 3 3 4 4 3 2 3 4 3 2 4 6 6 11 13 12 6 6 12 16 20 18 15 14 18 14 14 14 15 18 19 17 12 11 12 10 9 7 7 7 7 8 9 9
8 5 5 6 4 4 1 3 4 4 2 3 3 2 3 3 5 4 2 1 2 3 5 6 5 5 7 13 9 12 14 12 16 17 17 18 16 12 9 7 7 9 12 12 11 9 8 8 8 9 10 9 7 9
6 5 3 2 1 2 4 3 3 5 5 5 3 4 3 5 3 2 2 5 2 7 10 12 13 12 10 11 13 13 16 17 18 17 17 21 21 20 16 13 10 6 6 9 10 8 8 8 9 11 9 9 11 11
3 4 4 5 4 3 4 4 4 4 3 4 3 6 3 3 2 2 5 8 13 12 16 17 17 17 19 17 16 13 11 13 13 15 15 16 17 16 14 8 6 6 7 8 8 7 8 9 10 8 10 13 14 13
3 2 4 5 4 5 4 3 2 2 4 2 3 3 2 3 7 6 9 11 11 14 17 15 13 14 16 18 19 21 20 12 6 5 4 3 9 13 15 9 9 9 8 9 11 10 9 10 12 12 12 12 12 12
3 2 4 5 4 4 2 3 2 2 7 5 5 4 4 4 11 14 16 14 16 17 17 16 15 16 15 12 12 15 16 16 17 16 3 2 9 14 15 17 15 13 13 13 12 11 11 13 12 11 11 13 12 10
3 3 4 4 2 1 4 7 12 11 5 4 7 4 3 3 6 18 17 16 16 14 15 15 16 14 12 14 14 9 11 9 10 13 11 10 11 13 14 13 13 14 15 16 16 15 13 12 13 14 14 16 8 7
3 2 4 3 0 2 3 3 3 3 1 3 1 2 2 3 2 4 8 7 11 13 11 10 12 9 7 7 7 5 2 4 10 13 12 12 11 11 13 15 16 14 13 14 14 12 13 13 13 14 15 13 8 8
4 4 4 3 3 2 3 3 3 3 3 2 2 2 2 3 2 3 5 7 8 9 9 7 6 5 2 3 4 4 8 12 11 8 8 10 13 14 13 14 14 14 13 13 12 11 13 14 18 17 14 12 10 8
Wind_Direction
124 134 142 149 156 164 171 176 180 182 184 188 194 196 194 201 200 199 209 218 204 264 288 306 192 172 201 192 184 184 100 344 68 84 124 187 129 212 109 165 173 159 141 176 89 72 275 197 112 161 187 111 138 115
121 128 136 142 149 159 167 177 186 187 189 193 194 195 200 196 196 197 205 202 205 270 293 317 289 282 255 183 137 157 162 142 167 103 61 109 111 102 138 206 133 156 178 177 175 212 274 336 135 95 129 125 118 115
124 132 140 149 157 159 165 169 181 194 199 197 188 193 195 192 192 189 192 190 176 270 288 238 240 283 273 209 195 129 296 184 134 117 166 141 139 136 140 234 125 263 154 141 110 360 67 63 68 75 89 104 89 85
129 135 137 141 146 147 146 149 158 161 169 156 176 180 176 180 188 182 178 194 197 309 262 285 295 286 305 188 176 189 151 115 95 97 117 158 130 194 187 168 149 193 143 127 71 38 82 40 72 111 99 95 92 80
138 138 141 144 147 149 152 155 153 159 162 161 167 172 176 181 187 186 198 196 185 236 305 287 310 327 6 169 151 153 154 116 101 90 208 225 158 112 38 83 215 185 169 152 197 186 134 121 115 130 108 105 103 105
150 150 149 149 150 149 149 149 151 159 162 162 168 171 176 173 173 157 181 227 214 177 331 322 295 295 11 128 79 93 139 103 102 116 177 252 162 104 108 164 275 195 134 162 149 100 107 106 93 103 102 102 98 99
168 163 157 155 155 156 158 156 153 153 157 162 164 166 172 178 173 185 162 224 210 199 356 268 337 21 322 151 60 50 12 63 80 102 77 138 81 75 92 162 177 114 103 109 117 113 99 151 127 106 104 106 103 101
170 168 164 163 161 158 160 162 161 162 161 164 171 171 172 176 192 207 192 165 153 177 223 240 245 1 14 58 112 108 51 22 11 126 35 81 34 57 116 149 126 112 108 111 87 79 113 119 114 111 114 117 107 103
193 190 185 183 185 185 189 183 175 175 175 176 168 169 175 198 178 180 211 238 261 229 199 160 153 160 36 19 44 61 103 67 299 116 70 83 337 190 236 155 145 149 133 127 104 108 117 120 122 122 120 116 111 109
187 189 184 178 181 189 188 182 182 182 174 166 148 188 106 123 123 174 269 283 170 184 240 88 49 115 91 28 33 65 28 100 90 283 75 68 98 303 350 94 116 123 125 127 112 120 127 127 132 131 127 121 118 113
134 143 152 159 158 155 158 167 164 162 160 179 175 114 102 141 79 181 255 233 291 37 8 73 97 110 5 89 93 38 118 50 113 234 131 126 198 199 140 92 114 121 123 86 103 129 135 135 136 128 116 113 113 114
119 122 127 137 150 160 166 167 167 159 206 124 107 103 102 113 138 134 16 344 36 103 327 78 42 63 34 88 96 12 96 50 163 169 103 186 217 157 153 124 129 124 116 118 125 124 124 126 127 121 119 117 117 119
101 117 125 134 142 149 156 161 156 114 118 62 63 53 54 337 52 81 126 109 118 340 359 68 67 83 33 42 54 109 105 185 76 131 213 190 134 139 135 120 112 112 109 109 111 116 114 112 118 122 115 118 122 118
85 102 114 124 137 145 146 159 183 80 78 74 52 50 47 37 51 29 28 42 356 321 26 69 63 91 100 71 98 106 244 100 95 153 237 145 154 135 128 129 121 116 113 111 110 110 107 109 108 114 121 130 125 120
83 88 94 101 118 111 129 88 62 70 56 60 41 45 47 337 350 49 200 145 330 282 49 59 46 96 83 107 90 121 81 186 195 224 138 141 131 124 117 121 120 114 112 108 112 105 108 114 116 114 128 133 132 132
81 72 58 73 92 108 102 84 57 63 58 62 45 60 21 50 19 11 358 19 354 311 285 68 98 66 57 105 97 61 128 185 188 34 102 130 116 111 116 113 110 106 107 111 116 120 120 123 126 126 131 131 137 138
76 50 56 72 71 94 80 70 56 49 58 45 28 358 22 99 82 329 325 335 293 55 47 20 63 91 114 76 55 16 34 359 64 58 75 114 120 117 115 112 115 118 115 117 123 131 129 129 133 129 129 139 135 139
52 42 43 49 58 64 53 40 68 57 55 33 48 3 41 37 21 32 358 360 36 55 33 47 22 43 32 28 32 4 15 25 44 66 94 113 114 118 119 122 122 126 125 129 135 133 134 133 126 120 139 136 126 131
57 54 55 58 69 76 62 34 47 78 45 3 353 352 23 43 35 29 31 21 36 38 64 44 44 32 22 358 330 332 359 16 60 61 77 99 110 108 109 117 124 130 129 126 125 117 113 119 121 122 128 139 119 125
61 55 54 61 71 76 65 28 54 71 54 38 11 42 36 29 30 40 40 27 35 52 45 47 34 6 346 329 320 326 7 15 94 87 73 72 95 106 110 113 109 114 109 106 100 104 100 90 91 106 111 110 114 110
38 32 39 48 55 63 77 39 56 84 84 65 352 33 69 47 41 31 32 6 49 34 57 39 48 33 19 19 21 28 26 21 48 62 93 83 72 86 87 87 94 97 99 99 100 89 89 88 90 101 91 86 73 108
30 30 44 36 62 54 57 17 92 105 73 128 36 63 57 42 46 39 52 39 55 15 11 35 34 31 26 24 26 29 36 49 56 55 51 60 55 59 61 68 80 74 71 77 85 90 92 88 95 92 95 71 64 112
48 39 52 36 62 47 322 5 57 20 65 345 30 38 23 25 67 59 70 46 49 3 9 69 61 50 47 37 39 37 37 50 54 56 60 65 64 63 66 62 68 79 80 74 86 91 88 72 72 78 51 24 28 33
51 52 45 45 47 68 15 21 23 30 34 28 52 49 20 22 70 64 68 50 7 6 21 28 27 45 44 41 38 29 27 49 60 53 51 69 71 62 67 65 64 69 76 84 80 76 69 66 59 37 21 16 15 359
65 1 62 8 356 56 44 10 357 47 55 21 65 358 335 28 68 59 59 50 11 9 5 24 44 41 47 42 33 31 38 49 57 60 36 67 88 85 75 71 66 59 52 58 53 54 48 37 29 28 21 13 356 341
69 7 52 27 6 66 33 53 0 3 54 52 55 358 42 70 62 54 54 56 355 1 355 7 40 55 54 47 41 29 23 58 73 68 44 59 69 78 73 64 54 45 40 33 28 27 27 17 10 1 351 7 20 4
57 32 348 46 90 58 37 44 41 58 35 23 338 9 50 67 72 83 115 26 72 46 58 62 61 59 55 44 51 53 61 69 81 89 85 72 65 59 57 65 65 49 17 16 15 14 4 352 342 343 342 339 335 329
68 60 55 321 42 25 76 53 48 27 350 329 44 31 78 82 66 44 30 33 108 89 79 75 74 74 70 65 60 62 99 98 96 94 84 77 63 56 48 42 38 24 2 350 349 342 337 334 336 343 332 328 332 325
36 351 74 23 51 49 36 71 77 41 344 360 82 66 74 58 7 29 35 70 89 89 75 76 85 82 74 66 61 56 57 62 70 56 40 351 9 12 20 34 10 0 354 340 335 333 327 329 325 327 325 326 331 337
336 42 82 40 61 56 3 81 97 353 34 88 102 96 73 63 32 63 63 84 82 86 85 82 77 76 71 69 66 56 48 44 46 49 69 352 343 339 342 338 331 328 326 326 325 330 324 328 326 327 330 325 317 321
14 40 65 60 82 10 101 110 85 71 51 49 49 96 134 145 71 57 66 84 91 82 74 67 58 48 50 43 37 37 41 40 23 11 5 353 347 343 347 357 357 343 333 327 325 325 324 333 336 333 331 328 302 301
28 72 115 98 122 291 98 167 165 111 73 68 77 78 34 64 62 41 24 35 70 66 60 53 34 25 30 36 37 41 33 347 343 340 336 333 340 338 341 340 340 343 347 350 352 347 351 349 354 357 356 346 314 322
38 35 40 62 39 28 313 89 70 66 41 63 42 115 80 113 135 146 67 45 54 39 25 10 347 353 126 1 5 354 338 334 336 345 351 2 353 344 344 341 338 338 338 339 338 335 336 338 338 337 335 333 333 325